User: anonymous   Login
Location: Unspecified
(51.6250°N, 0.8230°E)
Time: 05:51:50
(UTC+00:00)
Language:

ISS - Orbit

View from above orbital plane
View from above orbital plane
View from above satellite
View from above satellite

Ground track
Ground track

The orbit data is extracted from the following two-line orbital elements,

1 25544U 98067A   21061.71433789  .00001409  00000-0  33714-4 0  9998
2 25544  51.6461 149.3466 0003168  66.3521  32.8864 15.49026110272099
Epoch (UTC): 02 March 2021 17:08:38
Eccentricity: 0.0003168
inclination: 51.6461°
perigee height: 417 km
apogee height: 422 km
right ascension of ascending node: 149.3466°
argument of perigee: 66.3521°
revolutions per day: 15.49026110
mean anomaly at epoch: 32.8864°
orbit number at epoch: 27209

The dashed part of the orbit path shows where the satellite is in the earth's shadow,  

DLR